Belize, Belize

8:37 PM CST on March 25, 2017 (GMT -0600)
Philip S W Goldson International

Weather History for MZBZ - April, 2014

Change the Weather History Date:

Wednesday, April 9, 2014

  Actual Average Record
Temperature  
Mean Temperature 75 °F -  
Max Temperature 84 °F 88 °F 95 °F (2006)
Min Temperature 66 °F 74 °F 66 °F (2014)
Cooling Degree Days 10    
Growing Degree Days 25 (Base 50)    
Moisture  
Dew Point 60 °F    
Average Humidity 57    
Maximum Humidity 88    
Minimum Humidity 31    
Precipitation  
Precipitation 0.00 in 0.09 in - ()
Sea Level Pressure  
Sea Level Pressure 30.17 in    
Wind  
Wind Speed 6 mph ()    
Max Wind Speed 13 mph    
Max Gust Speed -    
Visibility 8.3 miles    
Events      
Averages and records for this station are not official NWS values.
T = Trace of Precipitation, MM = Missing Value Source: Averaged Metar Reports

Daily Weather History Graph

Daily Weather History Graph

Search for Another Location

Airport or City:

Trip Planner

Search our weather history database for the weather conditions in past years. The results will help you decide how hot, cold, wet, or windy it might be!

Date:

Astronomy

Apr. 09, 2014 Rise Set
Actual Time 5:41 AM CST 6:08 PM CST
Civil Twilight 5:19 AM CST 6:30 PM CST
Nautical Twilight 4:53 AM CST 6:55 PM CST
Astronomical Twilight 4:28 AM CST 7:21 PM CST
Moon 1:38 PM CST (4/9) 1:46 AM CST (4/9)
Length of Visible Light 13h 10m
Length of Day
12h 26m
Waxing Gibbous, 72% of the Moon is Illuminated
Apr 9
Waxing Gibbous
Apr 15
Full
Apr 22
Last Quarter
Apr 29
New
May 6
First Quarter

Hourly Weather History & Observations

Time (CST) Temp. Heat Index Dew Point Humidity Pressure Visibility Wind Dir Wind Speed Gust Speed Precip Events Conditions
12:00 AM 76 °F - 60 °F 48% 30.15 in 12 mi WNW 8.1 mph - -   Partly Cloudy
3:00 AM 70 °F - 65 °F 81% 30.15 in 12 mi West 5.8 mph - -   Mostly Cloudy
5:00 AM 68.0 °F - 64.4 °F 88% 30.17 in 6.2 mi West 3.5 mph - N/A   Partly Cloudy
6:00 AM 66 °F - 63 °F 87% 30.20 in 12 mi West 3.5 mph - -   Mostly Cloudy
6:00 AM 66.2 °F - 62.6 °F 88% 30.19 in 6.2 mi West 3.5 mph - N/A   Mostly Cloudy
7:00 AM 68.0 °F - 64.4 °F 88% 30.22 in 6.2 mi West 4.6 mph - N/A   Mostly Cloudy
8:00 AM 71.6 °F - 64.4 °F 78% 30.24 in 6.2 mi WNW 6.9 mph - N/A   Partly Cloudy
9:00 AM 76 °F - 58 °F 44% 30.25 in 12 mi NNW 11.5 mph - -   Mostly Cloudy
9:00 AM 75.2 °F - 59.0 °F 57% 30.25 in 6.2 mi NNW 11.5 mph - N/A   Partly Cloudy
10:00 AM 77.0 °F - 55.4 °F 47% 30.25 in 6.2 mi NNW 12.7 mph - N/A   Partly Cloudy
11:00 AM 80.6 °F 80.8 °F 57.2 °F 45% 30.23 in 6.2 mi NNW 10.4 mph - N/A   Partly Cloudy
12:00 PM 82 °F - 56 °F 31% 30.20 in 12 mi NW 8.1 mph - -   Scattered Clouds
12:00 PM 82.4 °F 82.0 °F 57.2 °F 42% 30.20 in 6.2 mi NW 8.1 mph - N/A   Partly Cloudy
1:00 PM 84.2 °F 83.0 °F 55.4 °F 37% 30.16 in 6.2 mi NW 9.2 mph - N/A   Partly Cloudy
2:00 PM 84.2 °F 83.0 °F 55.4 °F 37% 30.13 in 6.2 mi NW 10.4 mph - N/A   Partly Cloudy
3:00 PM 82 °F - 60 °F 37% 30.11 in 12 mi East 10.4 mph - -   Scattered Clouds
3:00 PM 82.4 °F 82.9 °F 60.8 °F 48% 30.10 in 6.2 mi East 10.4 mph - N/A   Partly Cloudy
4:00 PM 80.6 °F 81.8 °F 62.6 °F 54% 30.10 in 6.2 mi East 8.1 mph - N/A   Partly Cloudy
5:00 PM 80.6 °F 81.5 °F 60.8 °F 51% 30.09 in 6.2 mi East 6.9 mph - N/A   Partly Cloudy
6:00 PM 79 °F - 62 °F 46% 30.11 in 12 mi ESE 3.5 mph - -   Scattered Clouds
6:00 PM 78.8 °F - 62.6 °F 57% 30.10 in 6.2 mi ESE 3.5 mph - N/A   Partly Cloudy
9:00 PM 73 °F - 63 °F 64% 30.16 in 12 mi ESE 2.3 mph - -   Clear